Terminal Aerodrome Forecast
Issued by NWS

Home | Current Version | Previous Version | Text Only | Print | Product List | Glossary On
Versions: 1 2 3 4 5 6 7 8 9 10 11 12 13 14 15 16 17 18 19 20
000
FTUS45 KFGZ 251700
TAFGCN
TAF
KGCN 251727Z 2518/2618 22014G22KT P6SM SCT060 SCT250
     FM260100 21006KT P6SM SCT050 SCT250=

USA.gov is the U.S. government's official web portal to all federal, state and local government web resources and services.